Location: Shenandoah County Park
(38.9356°N, 78.4524°W)
Time: 11:41:34
(UTC-05:00)

XW-2F - Visible Passes

Search period start: 11 December 2023 00:00
Search period end: 21 December 2023 00:00
Orbit: 395 x 403 km, 97.4° (Epoch: 11 December)

Date Brightness Start Highest point End Pass type
(mag) Time Alt. Az. Time Alt. Az. Time Alt. Az.
12 Dec ? 06:42:44 10° NE 06:44:46 16° E 06:46:47 10° SE visible
14 Dec ? 06:33:48 10° ENE 06:35:00 12° E 06:36:12 10° ESE visible
15 Dec ? 19:07:17 10° SSW 19:07:22 11° SSW 19:07:22 11° SSW visible
17 Dec ? 18:56:47 10° S 18:57:01 12° S 18:57:01 12° S visible
19 Dec ? 06:52:41 10° NE 06:55:08 21° E 06:57:34 10° SSE visible
19 Dec ? 18:46:02 10° S 18:46:21 12° S 18:46:21 12° S visible
